www.pogodaiklimat.ru

Погода и климат >> Архив погоды >> ОАЭ >> Abu Dhabi


АРХИВ ПОГОДЫ в Abu Dhabi

Время (UTC), дата Ветер
(напр.,м/с)
 
Видим.   Явления Облачность Т
(С)
Тd
(С)
f
(%)
Тe
(С)
Тes
(С)
Комфортность P
(гПа)
Po
(гПа)
Тmin
(С)
Tmax
(С)
R
(мм)
R24
(мм)
S
(см)
21 9.10 В 2 8000 м мгла ясно +29.6 +25.7 80 +44 +44 опасность
перегрева
1008.6 1005.8
00 10.10 СВ 3 5000 м мгла ясно +28.2 +25.3 84 +41 +41 опасность
перегрева
1008.1 1005.3
06 10.10 Ю 6 9000 м пыль ясно +34.5 +8.7 21 +33 +37 жарко 1010.7 1007.9 +26.8
09 10.10 Ю 4 9000 м пыль ясно +39.5 +5.4 12 +37 +46 очень
жарко
1008.2 1005.5
12 10.10 С 5 10 км ясно +39.9 +5.7 12 +37 +39 очень
жарко
1006.6 1003.9
21 10.10 С 2 10 км ясно +30.2 +20.9 58 +38 +38 очень
душно
1008.6 1005.8
09 11.10 ЮВ 3 9000 м пыль ясно +38.0 +8.3 16 +36 +48 очень
жарко
1009.1 1006.4
12 11.10 В 3 10 км ясно +39.3 +6.4 13 +37 +41 очень
жарко
1007.5 1004.8
15 11.10 С 5 10 км ясно +34.0 +15.8 34 +36 +36 душно 1008.3 1005.5
18 11.10 СВ 4 10 км ясно +31.3 +19.9 51 +38 +38 очень
душно
1010.2 1007.4 +39.7
21 11.10 В 2 10 км ясно +29.4 +14.7 41 +32 +32 душно 1009.7 1006.9
00 12.10 ЮВ 3 10 км ясно +28.7 +3.8 20 +27 +27 жарко 1009.7 1006.9
09 12.10 СВ 2 10 км ясно +37.8 +2.8 11 +34 +49 очень
жарко
1010.2 1007.5
12 12.10 СЗ 8 10 км ясно +36.0 +7.6 18 +34 +35 очень
жарко
1008.7 1006.0
03 13.10 В 4 8000 м пыль ясно +24.6 +2.3 23 +24 +24 комфорт 1012.7 1009.8
06 13.10 ЮВ 4 10 км ясно +31.4 +10.5 28 +31 +38 жарко 1014.3 1011.5 +24.6
09 13.10 Ю 3 10 км ясно +37.5 +2.6 11 +34 +46 очень
жарко
1012.0 1009.3
12 13.10 СЗ 6 10 км ясно +36.1 +10.8 22 +35 +37 очень
жарко
1010.4 1007.7
18 13.10 С 3 10 км ясно +30.0 +18.7 51 +35 +35 очень
душно
1012.6 1009.8 +39.0
00 14.10 В 2 10 км ясно +24.7 +17.8 65 +29 +29 душно 1012.2 1009.3
06 14.10 Ю 6 10 км ясно +32.3 +19.1 46 +38 +42 очень
душно
1015.3 1012.5 +23.6
09 14.10 нст 3 10 км ясно +35.7 +15.8 31 +38 +50 очень
душно
1013.1 1010.3
12 14.10 СЗ 5 10 км ясно +36.3 +17.9 34 +40 +42 очень
душно
1011.2 1008.5
18 14.10 СВ 3 10 км 4/0
[Ac trans]
+30.8 +22.6 62 +40 +40 очень
душно
1013.5 1010.7 +38.2
03 15.10 ЮЗ 3 10 км 5/0
[Ac trans Ci sp]
+28.3 +15.8 47 +31 +32 душно 1014.1 1011.3
06 15.10 ЮЗ 4 10 км 3/0
[Ac trans Ci fib]
+31.8 +14.3 35 +34 +39 душно 1015.7 1012.9 +28.0
09 15.10 З 5 10 км 4/0
[Ac trans Ci sp]
+33.9 +14.8 32 +36 +42 душно 1013.5 1010.7
12 15.10 СЗ 6 10 км 3/0
[Ci sp]
+34.5 +14.8 31 +36 +38 душно 1011.7 1008.9
18 15.10 СЗ 3 10 км 3/0
[Ac trans Ci fib]
+30.2 +22.8 65 +40 +40 очень
душно
1013.9 1011.1 +35.7
21 15.10 С 1 10 км ясно +29.1 +22.7 68 +38 +38 очень
душно
1012.8 1010.0
03 16.10 Ю 3 10 км 1/0
[Ac trans]
+26.9 +20.1 66 +33 +33 очень
душно
1013.6 1010.8
06 16.10 ЮЗ 3 10 км ясно +31.0 +22.0 59 +40 +47 очень
душно
1014.9 1012.1 +25.5
09 16.10 З 4 10 км 3/3 1350 м
[Cu hum Ac trans]
+33.2 +22.0 52 +42 +49 опасность
перегрева
1012.7 1009.9

 

Местоположение метеостанции Abu Dhabi (ОАЭ): широта 24.43 долгота 54.65 высота над уровнем моря 27 м.

В архиве по умолчанию представлена погода в Abu Dhabi за последнюю неделю. Архивные данные за месяц целиком и за предыдущие месяцы, начиная с января 2011 года, Вы можете получить, выбрав интересующий диапазон дат из раскрывающегося списка и нажав кнопку "Ввод!".


*Определитесь, кто Вы:
робот инопланетянин человек

Внимание! Время в таблицах - всемирное. Для получения местного времени необходимо прибавить поправку, которая в Abu Dhabi равна 4 ч.

Смотрите также архив погоды в соседних городах и на ближайших метеорологических станциях:

Погода в Abu Dhabi Bateen Airport (ОАЭ) (19 км)
Погода в Dubai Al Maktoum Int Airport (ОАЭ) (73 км)
Погода в Al Ain Int Airport (ОАЭ) (98 км)
Погода в Dubai (ОАЭ) (114 км)
Погода в Buraimi (Оман) (117 км)
Погода в Sharjah (ОАЭ) (133 км)
Погода в Abu Musa Island (Иран) (157 км)
Погода в Sirri Island (Иран) (165 км)
Погода в Qumayra (Оман) (167 км)
Погода в Ras Al Khaimah Int Airport (ОАЭ) (185 км)

Пояснения к столбцам:

Ветер - указаны скорость ветра в м/с - средняя за 10 мин, порывы в срок и между сроками (в фигурных скобках) и направление, откуда дует ветер: С - северный, СВ - северо-восточный, В - восточный, ЮВ - юго-восточный, Ю - южный, ЮЗ - юго-западный, З - западный, СЗ - северо-западный.
Видимость - горизонтальная дальность видимости в метрах или километрах. При видимости от 1 до 10 км при отсутствии осадков обычно наблюдается дымка, при ухудшении видимости до 1 км и менее - туман. В сухую погоду видимость может ухудшаться дымом, пылью или мглою.
Явления - указаны атмосферные явления, наблюдавшиеся в срок или в последний час перед сроком; фигурными скобками обозначены явления, наблюдавшиеся между сроками (за 1-3 часа до срока); квадратными скобками обозначены град или гололедные отложения с указанием их диаметра в мм.
Облачность - указаны через наклонную черту общая и нижняя облачность в баллах и высота нижней границы облаков в метрах; квадратными скобками обозначены формы облаков: Ci - перистые, Cs - перисто-слоистые, Cc - перисто-кучевые, Ac - высококучевые, As - высокослоистые, Sc - слоисто-кучевые, Ns - слоисто-дождевые, Cu - кучевые, Cb - кучево-дождевые. Подробнее классификацию облаков см. в Атласе облаков (PDF).
T - Температура воздуха - температура, измеренная на высоте 2 м над землей.
Td - Температура точки росы - температура, при понижении до которой содержащийся в воздухе водяной пар достигнет насыщения.
f - Относительная влажность воздуха - влажноcть воздуха, измеренная на высоте 2 м над землей.
Te - Эффективная температура - температура, которую ощущает одетый по сезону человек в тени. Характеристика душности погоды. При расчете учитывается влияние влажности воздуха и скорости ветра на теплоощущения человека.
Tes - Эффективная температура на солнце - температура, которую ощущает человек, с поправкой на солнечный нагрев. Характеристика знойности погоды. Зависит от высоты солнца над горизонтом, облачности и скорости ветра. Ночью, в пасмурную погоду, а также при ветре 12 м/с и более поправка равна нулю.
P - Атмосферное давление - приведенное к уровню моря атмосферное давление.
Po - Атмосферное давление - измеренное на уровне метеостанции атмосферное давление.
Tmin - Минимальная температура - минимум температуры воздуха на высоте 2 м над землей.
Tmax - Максимальная температура - максимум температуры воздуха на высоте 2 м над землей.
R - Количество осадков - Количество выпавших осадков за период времени, мм. При наведении курсора мыши на число - период времени, за который выпало указанное количество осадков.
R24 - Количество осадков - Количество выпавших осадков за 24 часа, мм.
S - Снежный покров - Высота снежного покрова, см. При наведении курсора мыши на число - состояние снежного покрова и степень покрытия местности в баллах.